KISSLEGG Weather Reports


Display with metric or nautical units.
time (UTC)temp
F
wind
direction
speed
MPH
gust
MPH
rain 1hr
in
rain 24hr
in
rain mn
in
humidity
%
barometer
mb
20260507140210 55 351 0.0 0.0 0.00 0.00 0.07 77 1014.3
20260507133210 60 360 0.0 0.0 0.00 0.00 0.07 66 1014.4
20260507130210 57 360 0.0 0.0 0.00 0.00 0.07 69 1014.4
20260507123210 58 360 0.0 0.0 0.00 0.00 0.07 72 1014.4
20260507120211 55 360 0.0 0.0 0.00 0.00 0.07 76 1014.4
20260507113210 56 360 0.0 0.0 0.00 0.00 0.07 77 1014.5
20260507110210 52 360 0.0 0.0 0.00 0.00 0.07 84 1014.7
20260507103216 52 360 0.0 0.0 0.00 0.00 0.07 86 1014.7
20260507100212 51 360 0.0 0.0 0.00 0.00 0.07 89 1014.7
20260507093211 50 360 0.0 0.0 0.00 0.00 0.07 91 1014.6
20260507090211 49 360 0.0 0.0 0.00 0.00 0.07 93 1014.3
20260507083212 48 360 0.0 0.0 0.00 0.00 0.07 94 1014.2
20260507080211 48 360 0.0 0.0 0.00 0.00 0.07 95 1014.1
20260507073212 47 360 0.0 0.0 0.00 0.00 0.06 95 1014.0
20260507070212 46 360 0.0 0.0 0.00 0.00 0.06 95 1013.6
20260507063211 46 360 0.0 0.0 0.00 0.00 0.06 95 1013.4
20260507060211 47 360 0.0 0.0 0.00 0.00 0.02 94 1013.1
20260507053211 46 360 0.0 0.0 0.00 0.00 0.00 94 1012.9
20260507050213 46 360 0.0 0.0 0.00 0.00 0.00 93 1012.4
20260507043211 46 360 0.0 0.0 0.00 0.00 0.00 93 1012.1
20260507040216 46 360 0.0 0.0 0.00 0.00 0.00 94 1011.8
20260507033211 45 360 0.0 0.0 0.00 0.00 0.00 93 1011.6
20260507030211 45 360 0.0 0.0 0.00 0.00 0.00 92 1011.6
20260507023211 46 360 0.0 0.0 0.00 0.00 0.00 93 1011.5
20260507020211 46 360 0.0 0.0 0.00 0.00 0.00 94 1011.4
20260507013212 45 360 0.0 0.0 0.00 0.00 0.00 95 1011.2
20260507010211 44 360 0.0 0.0 0.00 0.00 0.00 95 1011.2
20260507003209 44 360 0.0 0.0 0.00 0.00 0.00 94 1011.0
20260507000209 44 360 0.0 0.0 0.00 0.00 0.00 94 1011.0
20260506233209 45 244 0.0 0.0 0.00 0.00 0.00 94 1011.0
20260506230209 45 360 0.0 0.0 0.00 0.00 0.00 93 1010.8
20260506223209 46 360 0.0 0.0 0.00 0.00 0.00 93 1010.7
20260506220209 46 360 0.0 0.0 0.00 0.00 0.00 93 1010.6
20260506213209 47 360 0.0 0.0 0.00 0.00 0.06 92 1010.4
20260506210210 47 360 0.0 0.0 0.00 0.00 0.06 92 1010.3
20260506203210 47 360 0.0 0.0 0.00 0.00 0.06 92 1010.0
20260506200210 47 211 0.0 0.0 0.00 0.00 0.06 92 1009.9
20260506193215 47 193 0.0 0.0 0.00 0.00 0.06 92 1009.9
20260506190211 48 360 0.0 0.0 0.00 0.00 0.06 92 1009.2
20260506183209 48 211 0.0 0.0 0.00 0.00 0.06 91 1008.9
20260506180216 48 360 0.0 0.0 0.00 0.00 0.06 90 1008.6
20260506173210 49 360 0.0 0.0 0.00 0.00 0.06 90 1008.4
20260506170215 49 360 0.0 0.0 0.00 0.00 0.06 91 1008.1
20260506163210 49 360 0.0 0.0 0.00 0.00 0.06 91 1007.9
20260506160210 49 360 0.0 0.0 0.00 0.00 0.06 92 1008.1
20260506153210 49 360 0.0 0.0 0.00 0.00 0.06 93 1007.2
20260506150210 49 360 0.0 0.0 0.00 0.00 0.04 91 1006.7
20260506143210 53 360 0.0 0.0 0.00 0.00 0.02 82 1006.6